Regional Weather Roundup
Issued by NWS Upton, NY

Current Version | Previous Version | Graphics & Text | Print | Product List | Glossary Off
Versions: 1 2 3 4 5 6 7 8 9 10 11 12 13 14 15 16 17 18 19 20 21 22 23 24 25 26 27 28 29 30 31 32 33 34 35 36 37 38 39 40 41 42 43 44 45 46 47 48 49

000
ASUS41 KOKX 240905
RWROKX

REGIONAL WEATHER ROUNDUP
NATIONAL WEATHER SERVICE NEW YORK NY
500 AM EDT THU JUL 24 2014

NOTE: "FAIR" INDICATES FEW OR NO CLOUDS BELOW 12,000 FEET WITH NO
SIGNIFICANT WEATHER AND/OR OBSTRUCTIONS TO VISIBILITY.

NYZ071-072-176-178-NJZ106-104-241000-
NEW YORK CITY METRO AREA


CITY           SKY/WX    TMP DP  RH WIND       PRES   REMARKS
CENTRAL PARK   CLOUDY    73  64  73 MISG      29.85R
LAGUARDIA APRT CLOUDY    74  66  76 NW10      29.81R
KENNEDY INTL   CLOUDY    75  68  78 N9        29.82R
NEWARK/LIBERTY MOCLDY    72  66  81 NW8       29.81S
BRNX BOT. GARD   N/A     72  64  78 NW7       29.84R
TETERBORO      CLOUDY    75  63  66 NW7       29.81R
$$

NYZ177-179-078>081-241000-
LONG ISLAND NEW YORK

CITY           SKY/WX    TMP DP  RH WIND       PRES   REMARKS
FARMINGDALE    PTCLDY    72  67  84 N3        29.81R
ISLIP          CLEAR     73  67  81 N7        29.78R
SHIRLEY        CLEAR     71  67  87 N9        29.80R
WESTHAMPTON    PTCLDY    70  67  90 N7        29.80S
MONTAUK POINT    N/A     70  68  93 NW3       29.79R
$$

NYZ052-065-067-241000-
HUDSON VALLEY

CITY           SKY/WX    TMP DP  RH WIND       PRES   REMARKS
WHITE PLAINS   PTCLDY    70  66  87 NW13      29.82R
NEWBURGH       CLOUDY    68  66  94 CALM      29.86R
MONTGOMERY     CLOUDY    68  65  90 CALM      29.84R
POUGHKEEPSIE   CLOUDY    71  67  87 N3        29.83R
ALBANY         CLOUDY    66  60  81 NW6       29.86R
$$

NJZ001-105-106-008-010-013-015-019>022-104-241000-
NEW JERSEY

CITY           SKY/WX    TMP DP  RH WIND       PRES   REMARKS
NEWARK/LIBERTY MOCLDY    72  66  81 NW8       29.81S
TETERBORO      CLOUDY    75  63  66 NW7       29.81R
CALDWELL       CLOUDY    70  63  78 CALM      29.84R
MORRISTOWN     CLOUDY    72  64  78 CALM      29.84S
SOMERVILLE     CLOUDY    69  66  90 CALM      29.83R
LINDEN         PTSUNNY   72  66  82 NW6       29.84R
SUSSEX         PTCLDY    70  62  76 CALM      29.86R
ANDOVER          N/A     68  62  81 N5        29.86F
TRENTON        CLOUDY    69  65  86 N8        29.83S
MILLVILLE      MOCLDY    71  69  93 W3        29.85R
ATLANTIC CITY  MOCLDY    71  69  93 W5        29.83R
WRIGHTSTOWN    MOCLDY    69  67  90 N7        29.82R
TOMS RIVER     PTCLDY    72  68  88 NW7       29.83R
BELMAR         PTCLDY    72  64  78 NW10      29.82S
$$

PAZ047>061-062-071-241000-
EASTERN PENNSYLVANIA

CITY           SKY/WX    TMP DP  RH WIND       PRES   REMARKS
PHILADELPHIA   CLOUDY    73  63  70 N10       29.84S
ALLENTOWN      CLOUDY    68  62  81 NW6       29.87S
SCRANTON       CLOUDY    66  59  78 N3        29.91R
$$

CTZ002-004>006-009-010-012-RIZ004-006-007-MAZ004-011-015-241000-
SOUTHERN NEW ENGLAND
 IN CT

CITY           SKY/WX    TMP DP  RH WIND       PRES   REMARKS
BRADLEY INTL   MOCLDY    70  67  90 NW5       29.80R
HARTFORD       CLOUDY    72  66  81 NW7       29.80R
DANBURY        CLOUDY    69  64  84 NW3       29.85R
WTRBRY/OXFORD  CLOUDY    66  63  88 N6        29.84S
BRIDGEPORT     CLEAR     71  66  84 NW5       29.80R
MERIDEN        CLOUDY    70  67  90 N5        29.80S
NEW HAVEN      PTCLDY    72  67  84 NW5       29.80R
CHESTER        PTSUNNY   70  66  88 N6        29.81S
GROTON         MOCLDY    70  69  97 NW3       29.77S
WILLIMANTIC    CLOUDY    71  68  90 N3        29.80R

 IN RI

CITY           SKY/WX    TMP DP  RH WIND       PRES   REMARKS
PROVIDENCE     RAIN      71  67  87 NW6       29.78R FOG
BLOCK ISLAND   MOCLDY    70  66  88 NW7       29.78S
WESTERLY       CLOUDY    71  68  90 CALM      29.78S

 IN MA

CITY           SKY/WX    TMP DP  RH WIND       PRES   REMARKS
BOSTON         CLOUDY    74  68  81 NW7       29.76R
WORCESTER      CLOUDY    66  63  90 NW6       29.82R
WESTFIELD      CLOUDY    68  66  93 CALM      29.81R
PROVINCETOWN   PTCLDY    66  64  94 SW3       29.75S
NANTUCKET      FOG       68  68 100 SW9       29.78R VSB 1
$$

ANZ330-335-338-340-345-350-353-355-241000-
COASTAL MARINE OBSERVATIONS


STATION/POSITION TIME  SKY/WX   TEMP    WIND        PRES    VSBY  WAVE
                                AIR SEA DIR/SP/G                  HT/PER
                 (UTC)          (F)     (DEG/KT/KT) (MB)    (MI)  (FT/S)
NY HARB ENTRANCE NOT AVBL
4S FIRE IS       NOT AVBL
23SW MTP         0900            70 69              1007.6          3/ 5
HUDSON CANYON    0900            74 74  300/  8/ 10 1007.9          3/ 4
EXECUTION ROCKS  0900            72 71  350/  2/  4   N/A
WESTERN LI SOUND 0900            73     330/  2/  4   N/A           0
CENTRAL LI SOUND 0800            72 73  300/ 12/ 14   N/A           0
EASTERN LI SOUND 0800            69 67  300/  4/  6   N/A
ROBBINS REEF     0800            73     320/  8/ 10   N/A
$$


>>>>>>>>>>>>>>>>>>>>>>>>>>>> KEY <<<<<<<<<<<<<<<<<<<<<<<<<<<
>                                                          <
>     SKY/WX - SKY CONDITION/PRESENT WEATHER               <
>     TMP    - TEMPERATURE IN FAHRENHEIT                   <
>     DP     - DEWPOINT IN FAHRENHEIT                      <
>     RH     - RELATIVE HUMIDITY IN PERCENT                <
>     WIND   - DIRECTION AND SPEED IN MPH                  <
>     PRES   - MEAN SEA LEVEL PRESSURE IN INCHES OF HG     <
>     WCI    - WIND CHILL INDEX                            <
>     VSB    - VISIBILITY IN MILES                         <
>     HX     - HEAT INDEX                                  <
>     TC     - TEMPERATURE IN CELSIUS                      <
>     VRB    - VARIABLE WIND DIRECTION                     <
>                                                          <
>>>>>>>>>>>>>>>>>>>>>>>>>>>> KEY <<<<<<<<<<<<<<<<<<<<<<<<<<<





USA.gov is the U.S. government's official web portal to all federal, state and local government web resources and services.